(291788) = 2006 KM53

Discovered at Kitt Peak on 2006-05-21 by Spacewatch.

Orbit

Orbit type: Main Belt

Note: WebGL enabled browser required.

epoch2024-03-31.0
epoch JD2460400.5
perihelion date2019-10-22.62011
perihelion JD2458779.12011
argument of perihelion (°)143.35922
ascending node (°)86.35479
inclination (°)9.60600
eccentricity0.0857526
perihelion distance (AU)2.4979001
Tisserand w.r.t. Jupiter3.3
ΔV w.r.t. Earth (km/sec)10.3
semimajor axis (AU)2.7321928
mean anomaly (°)353.85196
mean daily motion (°/day)0.21824120
aphelion distance (AU)2.966
period (years)4.52
P-vector [x]-0.63825225
P-vector [y]-0.73998177
P-vector [z]-0.21227587
Q-vector [x]0.75159854
Q-vector [y]-0.53932950
Q-vector [z]-0.37976745
absolute magnitude16.55
phase slope0.15
uncertainty0
referenceMPEC 2024-F14
observations used286
oppositions16
arc length (days)8843
first opposition used1999
last opposition used2024
residual rms (arc-secs)0.73
perturbers coarse indicatorM-v
perturbers precise indicator003Ek
first observation date used1999-12-31.0
last observation date used2024-03-17.0
computer nameMPCLINUX
JD of orbit computation2456700.184127
perihelion JD uncertainty (days)1.2697E-04
argument of perihelion uncertainty (°)3.6373E-05
ascending node uncertainty (°)2.7054E-05
inclination uncertainty (°)5.1159E-06
eccentricity uncertainty 5.4176E-08
perihelion distance uncertainty (AU)1.5509E-07
Minimum Orbit Intersection Distances (in AU)
for orbit epoch: 2460400.5, reference: E2024-F14
Mercury2.04186
Venus1.77635
Earth1.49337
Mars0.94469
Jupiter2.04828
Saturn6.11574
Uranus15.8122
Neptune26.8756

Observations

291 total observations over interval: 1999 12 31.25852 – 2024 03 17.643005
These data are available for download (format description).

Date (UT) J2000 RA J2000 Dec Magn Location Ref
1999 12 31.25852 05 04 18.47 +22 16 48.1 20.9 V 691 – Steward Observatory, Kitt Peak-Spacewatch MPS 173994
1999 12 31.28143 05 04 17.25 +22 16 50.6 20.9 V 691 – Steward Observatory, Kitt Peak-Spacewatch MPS 173994
1999 12 31.30424 05 04 16.03 +22 16 53.0 20.7 V 691 – Steward Observatory, Kitt Peak-Spacewatch MPS 173994
2003 10 24.36134 02 46 55.87 +04 39 25.7 21.3 V 691 – Steward Observatory, Kitt Peak-Spacewatch MPS 173994
2003 10 24.38862 02 46 54.43 +04 39 20.9 21.1 V 691 – Steward Observatory, Kitt Peak-Spacewatch MPS 173994
2003 10 24.41649 02 46 52.97 +04 39 15.7 21.3 V 691 – Steward Observatory, Kitt Peak-Spacewatch MPS 173994
2006 05 07.35881 16 23 03.26 -14 00 42.9 19.6 V G96 – Mt. Lemmon Survey MPS 173994
2006 05 07.36613 16 23 02.86 -14 00 43.5 19.5 V G96 – Mt. Lemmon Survey MPS 173994
2006 05 07.37338 16 23 02.54 -14 00 43.5 19.4 V G96 – Mt. Lemmon Survey MPS 173994
2006 05 07.38086 16 23 02.18 -14 00 43.6 19.5 V G96 – Mt. Lemmon Survey MPS 173994
2006 05 21.36094 16 10 47.85 -14 13 40.3 20.0 V 691 – Steward Observatory, Kitt Peak-Spacewatch MPS 172949
2006 05 21.37821 16 10 46.84 -14 13 41.4 20.0 V 691 – Steward Observatory, Kitt Peak-Spacewatch MPS 172949
2006 05 21.39550 16 10 45.86 -14 13 43.0 19.9 V 691 – Steward Observatory, Kitt Peak-Spacewatch MPS 172949
2006 05 25.30770 16 07 02.63 -14 19 00.1 19.9 V 691 – Steward Observatory, Kitt Peak-Spacewatch MPS 172949
2006 05 25.32503 16 07 01.60 -14 19 01.8 20.0 V 691 – Steward Observatory, Kitt Peak-Spacewatch MPS 172949
2006 05 25.34585 16 07 00.36 -14 19 03.5 20.0 V 691 – Steward Observatory, Kitt Peak-Spacewatch MPS 172949
2006 06 16.31512 15 48 06.42 -15 06 37.4 20.4 V 691 – Steward Observatory, Kitt Peak-Spacewatch MPS 173994
2006 06 16.33247 15 48 05.65 -15 06 40.2 20.4 V 691 – Steward Observatory, Kitt Peak-Spacewatch MPS 173994
2006 06 16.34982 15 48 04.94 -15 06 43.3 20.5 V 691 – Steward Observatory, Kitt Peak-Spacewatch MPS 173994
2007 09 21.32608 23 58 32.28 -16 15 12.0 20.8 V 691 – Steward Observatory, Kitt Peak-Spacewatch MPS 216277
2007 09 21.33402 23 58 31.87 -16 15 14.5 20.7 V 691 – Steward Observatory, Kitt Peak-Spacewatch MPS 216277
2007 09 21.34169 23 58 31.44 -16 15 16.7 20.6 V 691 – Steward Observatory, Kitt Peak-Spacewatch MPS 216277
2008 11 19.36891 05 31 21.12 +20 24 48.7 20.7 V 691 – Steward Observatory, Kitt Peak-Spacewatch MPS 265286
2008 11 19.38655 05 31 20.26 +20 24 50.8 20.8 V 691 – Steward Observatory, Kitt Peak-Spacewatch MPS 265286
2008 11 19.41843 05 31 18.74 +20 24 53.8 21.0 V 691 – Steward Observatory, Kitt Peak-Spacewatch MPS 265286
2008 11 20.37137 05 30 34.37 +20 26 26.3 20.6 V G96 – Mt. Lemmon Survey MPS 265286
2008 11 20.37328 05 30 34.28 +20 26 26.3 20.5 V G96 – Mt. Lemmon Survey MPS 265286
2008 12 21.37475 05 00 56.55 +21 17 27.7 20.2 V G96 – Mt. Lemmon Survey MPS 269285
2008 12 21.38215 05 00 56.08 +21 17 28.4 20.4 V G96 – Mt. Lemmon Survey MPS 269285
2008 12 21.38954 05 00 55.65 +21 17 29.0 20.1 V G96 – Mt. Lemmon Survey MPS 269285
2008 12 21.39691 05 00 55.22 +21 17 29.5 20.3 V G96 – Mt. Lemmon Survey MPS 269285
2010 02 24.596288 12 30 25.277 +12 54 15.86 20.30 i F51 – Pan-STARRS 1, Haleakala MPS 319361
2010 02 24.604859 12 30 25.012 +12 54 19.63 20.08 i F51 – Pan-STARRS 1, Haleakala MPS 319361
2010 03 21.32237 12 12 42.55 +15 37 53.1 20.0 V G96 – Mt. Lemmon Survey MPS 319361
2010 03 21.32942 12 12 42.19 +15 37 55.4 19.8 V G96 – Mt. Lemmon Survey MPS 319361
2010 03 21.33648 12 12 41.83 +15 37 57.8 19.9 V G96 – Mt. Lemmon Survey MPS 319361
2010 03 21.34357 12 12 41.43 +15 37 59.8 19.9 V G96 – Mt. Lemmon Survey MPS 319361
2010 04 17.28648 11 52 03.18 +16 40 57.7 19.8 V 703 – Catalina Sky Survey MPS 323468
2010 04 17.29509 11 52 02.89 +16 40 56.6 19.8 V 703 – Catalina Sky Survey MPS 323468
2010 04 17.30381 11 52 02.67 +16 40 57.3 20.1 V 703 – Catalina Sky Survey MPS 323468
2010 04 17.31256 11 52 02.35 +16 40 57.0 19.9 V 703 – Catalina Sky Survey MPS 323468
2012 10 08.446294 02 48 32.777 +04 18 51.21 20.9 r F51 – Pan-STARRS 1, Haleakala MPS 437776
2012 10 08.446895 02 48 32.758 +04 18 51.43 21.0 r F51 – Pan-STARRS 1, Haleakala MPS 437776
2012 10 08.458666 02 48 32.262 +04 18 48.89 20.8 r F51 – Pan-STARRS 1, Haleakala MPS 437776
2012 10 08.459267 02 48 32.247 +04 18 48.75 20.9 r F51 – Pan-STARRS 1, Haleakala MPS 437776
2012 10 08.526345 02 48 29.432 +04 18 34.53 20.5 i F51 – Pan-STARRS 1, Haleakala MPS 437776
2012 10 08.527001 02 48 29.413 +04 18 34.49 20.5 i F51 – Pan-STARRS 1, Haleakala MPS 437776
2012 10 08.539990 02 48 28.868 +04 18 31.76 20.6 i F51 – Pan-STARRS 1, Haleakala MPS 437776
2012 10 08.540653 02 48 28.834 +04 18 31.64 20.7 i F51 – Pan-STARRS 1, Haleakala MPS 437776
2012 10 20.419414 02 39 23.251 +03 38 14.62 20.6 w F51 – Pan-STARRS 1, Haleakala MPS 439386
2012 10 20.447418 02 39 21.785 +03 38 09.20 20.6 w F51 – Pan-STARRS 1, Haleakala MPS 439386
2012 10 20.461485 02 39 21.049 +03 38 06.50 20.8 w F51 – Pan-STARRS 1, Haleakala MPS 439386
2014 01 01.34861 08 43 10.17 +25 52 22.0 21.0 V 691 – Steward Observatory, Kitt Peak-Spacewatch MPS 495122
2014 01 01.36636 08 43 09.40 +25 52 29.2 20.9 V 691 – Steward Observatory, Kitt Peak-Spacewatch MPS 495122
2014 01 01.38411 08 43 08.68 +25 52 36.5 20.7 V 691 – Steward Observatory, Kitt Peak-Spacewatch MPS 495122
2014 01 01.40779 08 43 07.938 +25 52 46.26 20.6 w F51 – Pan-STARRS 1, Haleakala MPS 495122
2014 01 01.42163 08 43 07.353 +25 52 51.97 20.7 w F51 – Pan-STARRS 1, Haleakala MPS 495122
2014 02 06.23801 08 10 41.91 +29 26 09.2 20.7 V G96 – Mt. Lemmon Survey MPS 500902
2014 02 06.24440 08 10 41.57 +29 26 11.3 20.9 V G96 – Mt. Lemmon Survey MPS 500902
2014 02 06.25079 08 10 41.19 +29 26 12.4 20.8 V G96 – Mt. Lemmon Survey MPS 500902
2014 02 06.25719 08 10 40.89 +29 26 13.8 20.4 V G96 – Mt. Lemmon Survey MPS 500902
2014 02 06.30975 08 10 37.88 +29 26 26.2 20.4 V G96 – Mt. Lemmon Survey MPS 500902
2014 02 06.31807 08 10 37.41 +29 26 28.2 20.6 V G96 – Mt. Lemmon Survey MPS 500902
2014 02 06.32631 08 10 36.93 +29 26 30.3 20.4 V G96 – Mt. Lemmon Survey MPS 500902
2014 02 06.33349 08 10 36.55 +29 26 32.2 20.7 V G96 – Mt. Lemmon Survey MPS 500902
2015 02 27.59178 16 01 05.681 -12 03 22.39 21.2 w F51 – Pan-STARRS 1, Haleakala MPS 585448
2015 02 27.59243 16 01 05.726 -12 03 22.42 21.2 w F51 – Pan-STARRS 1, Haleakala MPS 585449
2015 02 27.60307 16 01 06.281 -12 03 23.54 21.3 w F51 – Pan-STARRS 1, Haleakala MPS 585449
2015 02 27.60373 16 01 06.295 -12 03 23.46 21.1 w F51 – Pan-STARRS 1, Haleakala MPS 585449
2015 02 27.61436 16 01 06.844 -12 03 24.50 21.1 w F51 – Pan-STARRS 1, Haleakala MPS 585449
2015 02 27.61502 16 01 06.893 -12 03 24.47 21.3 w F51 – Pan-STARRS 1, Haleakala MPS 585449
2015 02 27.62568 16 01 07.424 -12 03 25.74 21.2 w F51 – Pan-STARRS 1, Haleakala MPS 585449
2015 02 27.62634 16 01 07.447 -12 03 25.68 21.2 w F51 – Pan-STARRS 1, Haleakala MPS 585449
2015 03 28.48274 16 17 13.61 -12 24 07.2 21.0 V G96 – Mt. Lemmon Survey MPS 597487
2015 03 28.48892 16 17 13.68 -12 24 07.0 21.0 V G96 – Mt. Lemmon Survey MPS 597487
2015 03 28.49510 16 17 13.77 -12 24 07.4 21.3 V G96 – Mt. Lemmon Survey MPS 597487
2015 03 28.50126 16 17 13.85 -12 24 07.4 21.0 V G96 – Mt. Lemmon Survey MPS 597487
2015 04 17.37002 16 15 25.88 -12 19 49.3 21.1 r G45 – Space Surveillance Telescope, Atom Site MPS 604467
2015 04 17.37626 16 15 25.68 -12 19 49.9 21.2 r G45 – Space Surveillance Telescope, Atom Site MPS 604467
2015 04 17.38266 16 15 25.50 -12 19 49.6 20.5 r G45 – Space Surveillance Telescope, Atom Site MPS 604467
2015 04 17.38818 16 15 25.40 -12 19 49.6 20.6 r G45 – Space Surveillance Telescope, Atom Site MPS 604467
2015 04 17.39751 16 15 25.13 -12 19 49.0 20.9 r G45 – Space Surveillance Telescope, Atom Site MPS 604467
2015 04 17.40381 16 15 24.99 -12 19 49.3 20.5 r G45 – Space Surveillance Telescope, Atom Site MPS 604467
2015 04 18.40523 16 15 01.42 -12 19 29.4 20.3 V 691 – Steward Observatory, Kitt Peak-Spacewatch MPS 602906
2015 04 18.42483 16 15 00.92 -12 19 28.8 20.6 V 691 – Steward Observatory, Kitt Peak-Spacewatch MPS 602906
2015 04 18.44416 16 15 00.38 -12 19 28.1 20.6 V 691 – Steward Observatory, Kitt Peak-Spacewatch MPS 602906
